Regional Weather Roundup
Issued by NWS State College, PA

Home | Current Version | Previous Version | Graphics & Text | Print | Product List | Glossary Off
Versions: 1 2 3 4 5 6 7 8 9 10 11 12 13 14 15 16 17 18 19 20 21 22 23 24 25 26 27 28 29 30 31 32 33 34 35 36 37 38 39 40 41 42 43 44 45 46 47 48 49 50

000
ASUS41 KCTP 211403
RWRCTP

REGIONAL WEATHER ROUNDUP
NATIONAL WEATHER SERVICE STATE COLLEGE PA
900 AM EST TUE FEB 21 2017

Note: "fair" indicates few or no clouds below 12,000 feet with no
significant weather and/or obstructions to visibility.

* = STATION THAT DOES NOT REPORT PRECIPITATION /E.G. RAIN...SNOW...ETC/
    THUNDER OR FOG.

PAZ002>004-007>009-013>016-020>023-029>032-211500-
WESTERN PENNSYLVANIA

CITY           SKY/WX    TMP DP  RH WIND       PRES   REMARKS
ERIE           MOSUNNY   50  29  44 S18G26    30.01F
MEADVILLE        N/A     47  28  47 VRB7      30.05F
FRANKLIN*      MOSUNNY   45  27  49 SE9       30.09S
NEW CASTLE     FAIR      50  32  50 VRB5      30.08F
BEAVER COUNTY  NOT AVBL
BUTLER*        CLOUDY    46  30  53 SE8       30.10F
PITTSBURGH INT CLOUDY    50  32  50 SE9       30.08S
PITTSBURGH     CLOUDY    49  30  48 SE6       30.08F
INDIANA*       SUNNY     46  28  49 S14       30.15F
LATROBE        MOSUNNY   50  30  46 SE5       30.12F
WASHINGTON CO* CLOUDY    50  34  53 S5        30.10S
$$

PAZ004>006-010>012-017>019-024>028-033>037-041-042-045-046-049>053-211500-
CENTRAL PENNSYLVANIA

CITY           SKY/WX    TMP DP  RH WIND       PRES   REMARKS
BRADFORD       CLOUDY    37  19  48 SE12      30.11F
DUBOIS         MOSUNNY   41  20  43 SE15      30.12F
CLEARFIELD       N/A    N/A N/A N/A MISG      30.19F
JOHNSTOWN      SUNNY     41  25  53 S14G23    30.15F
ALTOONA        MOSUNNY   42  20  41 S10       30.23S
STATE COLLEGE  SUNNY     39  18  41 CALM      30.24S
WILLIAMSPORT   CLOUDY    38  15  39 E10       30.29F
SELINSGROVE    CLOUDY    37  22  54 SE7       30.31F
FT INDIANTOWN  MOSUNNY   36  18  48 NE5       30.34F
CAPITAL CITY   CLOUDY    40  17  39 E7        30.34F
HARRISBURG     CLOUDY    40  21  46 SE9       30.34F
YORK           CLOUDY    38  21  50 SE7       30.33F
$$

PAZ038>040-043-044-047-048-054-055-060>062-067>071-211500-
EASTERN PENNSYLVANIA

CITY           SKY/WX    TMP DP  RH WIND       PRES   REMARKS
SCRANTON       CLOUDY    37  13  37 VRB3      30.29F
MOUNT POCONO   CLOUDY    31  13  47 SE8       30.27S
ALLENTOWN      CLOUDY    37  17  44 NE5       30.36F
QUAKERTOWN*    MOSUNNY   36  16  44 SE5       30.36F
READING        MOSUNNY   35  22  58 CALM      30.36S
LANCASTER      CLOUDY    37  23  56 E6        30.35F
COATESVILLE    MOSUNNY   37  18  44 E9        30.35F
POTTSTOWN      CLOUDY    35  16  45 NE3       30.38F
BLUE BELL      CLOUDY    34  21  60 E3        30.36F
DOYLESTOWN     CLOUDY    39  20  46 CALM      30.36S
WILLOW GROVE   NOT AVBL
NORTH PHILA    MOSUNNY   40  23  50 E7        30.39F
PHILADELPHIA   PTSUNNY   39  23  52 E10       30.38F
$$




USA.gov is the U.S. government's official web portal to all federal, state and local government web resources and services.